Weather in Khirposi

Russia / Chuvash Republic     55°30′47″N   47°08′15″E
В апреле 2022 года жителям России запретили посещать сайт meteo.paraplan.net по решению Генеральной прокуратуры. Аудитория сайта уменьшилась в 10 раз. Владельцы сайта не видят смысла в поддержке погодного сервера в таких условиях. Сайт будет закрыт в октябре.
temp.,
°C
wind,
m/s
gust,
m/s
humid.,
%
clouds,
%
prec.,
mm/h
press.,
hPa
HPBL,
m
4 october, tue
tue400:00+11sse71377100 1.3 1018778
03:00+10sse81483100 1.9 1019675
06:00+10sse61175100 0.0 1019574
09:00+10sse71284100 0.3 1020665
12:00+10sse71284100 0.0 1022627
15:00+11sse6126099 0.0 1022649
18:00+10sse61456100 0.0 1022450
21:00+11sse91652100 0.0 1022742
5 october, wed
wed500:00+9sse81690100 2.1 1021819
03:00+8sse71383100 3.8 1020623
06:00+9sse7128690 0.2 1020528
09:00+9sse7138852 0.2 1019536
12:00+13s796880 0.4 1018940
15:00+14s5970100 0.5 10181212
18:00+11sse51187100 0.5 1017275
21:00+10s379425 0.9 1016150
6 october, thu
thu600:00+8ssw229194 0.1 101634
03:00+8sw5986100 0.5 1015597
06:00+7wsw488796 0.5 1014505
09:00+7wsw5782100 0.6 1014767
12:00+6w6787100 0.3 1015865
15:00+6w4791100 0.9 1016789
18:00+6w4887100 0.1 1017488
21:00+6w4891100 0.1 1018315
7 october, fri
fri700:00+6wsw499498 0.0 1018292
03:00+5wsw48906 0.0 1018214
06:00+3sw49926 0.0 1017194
09:00+6ssw51284100 0.1 1016390
12:00+9wsw61188100 0.1 1015861
15:00+11wnw71283100 0.1 1016884
18:00+9wnw71383100 0.1 1018766
21:00+9w71375100 0.2 1019620
8 october, sat
sat800:00+8wnw714808 0.0 1021619
03:00+6w613930 0.0 1022370
06:00+5w5119627 0.0 1023301
09:00+8w588536 0.0 1025420
12:00+12w67670 0.0 1024830
15:00+13wsw57635 0.0 1023935
18:00+9sw37795 0.0 1024116
21:00+7sw49855 0.0 1024161